When you browse on this site, cookies collect data to enhance your experience and personalize the content and advertising you see.
Visit our Privacy Policy to learn more. By continuing to use the site, you agree to this use of cookies and data.
  • In United Kingdom
  • List of Countries
  • For 7 days
  • Water Temperature
  • Satellite Maps
  • Weather Map
  • Weather Widgets
  • user-avatar
    Login

    Hourly Weather Mamou

    Today, 17 November, Saturday

    Time Temperature Precipitation Wind Pressure Humidity
    00:00 +28°C° 0 mm 1 mps 734 mmHg 25%
    01:00 +27°C° 0 mm 2 mps 734 mmHg 25%
    02:00 +26°C° 0 mm 2 mps 734 mmHg 26%
    03:00 +26°C° 0 mm 2 mps 734 mmHg 26%
    04:00 +25°C° 0 mm 2 mps 734 mmHg 27%
    05:00 +25°C° 0 mm 2 mps 734 mmHg 27%
    06:00 +25°C° 0 mm 2 mps 734 mmHg 28%
    07:00 +25°C° 0 mm 2 mps 735 mmHg 28%
    08:00 +28°C° 0 mm 2 mps 735 mmHg 24%
    09:00 +31°C° 0 mm 2 mps 735 mmHg 21%
    10:00 +35°C° 0 mm 2 mps 735 mmHg 17%
    11:00 +37°C° 0 mm 2 mps 735 mmHg 15%
    12:00 +37°C° 0 mm 1 mps 734 mmHg 14%
    13:00 +40°C° 0 mm 1 mps 733 mmHg 13%
    14:00 +40°C° 0 mm 1 mps 733 mmHg 13%
    15:00 +40°C° 0 mm 1 mps 732 mmHg 13%
    16:00 +40°C° 0 mm 1 mps 732 mmHg 13%
    17:00 +37°C° 0 mm 1 mps 732 mmHg 15%
    18:00 +34°C° 0 mm 1 mps 732 mmHg 17%
    19:00 +32°C° 0 mm 1 mps 732 mmHg 19%
    20:00 +32°C° 0 mm 1 mps 733 mmHg 20%
    21:00 +31°C° 0 mm 1 mps 733 mmHg 21%
    22:00 +30°C° 0 mm 1 mps 734 mmHg 21%
    23:00 +30°C° 0 mm 2 mps 734 mmHg 22%

    Tomorrow, 18 November, Sunday

    Time Temperature Precipitation Wind Pressure Humidity
    00:00 +29°C° 0 mm 2 mps 734 mmHg 23%
    01:00 +28°C° 0 mm 2 mps 734 mmHg 24%
    02:00 +28°C° 0 mm 2 mps 733 mmHg 25%
    03:00 +27°C° 0 mm 2 mps 733 mmHg 26%
    04:00 +26°C° 0 mm 2 mps 733 mmHg 27%
    05:00 +27°C° 0 mm 2 mps 733 mmHg 27%
    06:00 +27°C° 0 mm 2 mps 733 mmHg 27%
    07:00 +27°C° 0 mm 2 mps 734 mmHg 27%
    08:00 +30°C° 0 mm 2 mps 734 mmHg 23%
    09:00 +34°C° 0 mm 2 mps 735 mmHg 19%
    10:00 +37°C° 0 mm 3 mps 735 mmHg 15%
    11:00 +38°C° 0 mm 2 mps 734 mmHg 14%
    12:00 +40°C° 0 mm 2 mps 733 mmHg 13%
    13:00 +41°C° 0 mm 1 mps 732 mmHg 12%
    14:00 +41°C° 0 mm 1 mps 732 mmHg 12%
    15:00 +41°C° 0 mm 2 mps 731 mmHg 12%
    16:00 +41°C° 0 mm 2 mps 731 mmHg 12%
    17:00 +39°C° 0 mm 2 mps 731 mmHg 14%
    18:00 +37°C° 0 mm 2 mps 731 mmHg 16%
    19:00 +34°C° 0 mm 2 mps 731 mmHg 18%
    20:00 +34°C° 0 mm 2 mps 732 mmHg 19%
    21:00 +32°C° 0 mm 2 mps 732 mmHg 20%
    22:00 +31°C° 0 mm 3 mps 733 mmHg 21%
    23:00 +30°C° 0 mm 3 mps 733 mmHg 22%

    Day after tomorrow, 19 November, Monday

    Time Temperature Precipitation Wind Pressure Humidity
    00:00 +29°C° 0 mm 3 mps 733 mmHg 22%
    01:00 +29°C° 0 mm 3 mps 733 mmHg 23%
    02:00 +28°C° 0 mm 2 mps 732 mmHg 23%
    03:00 +28°C° 0 mm 2 mps 732 mmHg 23%
    04:00 +27°C° 0 mm 2 mps 732 mmHg 23%
    05:00 +27°C° 0 mm 2 mps 733 mmHg 23%
    06:00 +27°C° 0 mm 2 mps 733 mmHg 24%
    07:00 +27°C° 0 mm 2 mps 734 mmHg 24%
    08:00 +30°C° 0 mm 2 mps 734 mmHg 20%
    09:00 +34°C° 0 mm 3 mps 734 mmHg 17%
    10:00 +37°C° 0 mm 3 mps 735 mmHg 14%
    11:00 +39°C° 0 mm 3 mps 734 mmHg 13%
    12:00 +40°C° 0 mm 2 mps 733 mmHg 12%
    13:00 +41°C° 0 mm 2 mps 732 mmHg 12%
    14:00 +41°C° 0 mm 2 mps 731 mmHg 12%
    15:00 +41°C° 0 mm 2 mps 731 mmHg 12%
    16:00 +41°C° 0 mm 2 mps 730 mmHg 12%
    17:00 +39°C° 0 mm 2 mps 730 mmHg 14%
    18:00 +37°C° 0 mm 2 mps 731 mmHg 15%
    19:00 +35°C° 0 mm 2 mps 731 mmHg 17%
    20:00 +34°C° 0 mm 2 mps 732 mmHg 18%
    21:00 +32°C° 0 mm 2 mps 732 mmHg 19%
    22:00 +31°C° 0 mm 2 mps 732 mmHg 20%
    23:00 +31°C° 0 mm 2 mps 732 mmHg 20%

    20 November, Tuesday

    Time Temperature Precipitation Wind Pressure Humidity
    00:00 +30°C° 0 mm 2 mps 732 mmHg 21%
    01:00 +29°C° 0 mm 2 mps 732 mmHg 21%
    02:00 +29°C° 0 mm 2 mps 732 mmHg 21%
    03:00 +28°C° 0 mm 2 mps 732 mmHg 21%
    04:00 +28°C° 0 mm 2 mps 732 mmHg 21%
    05:00 +28°C° 0 mm 2 mps 732 mmHg 21%
    06:00 +28°C° 0 mm 1 mps 733 mmHg 21%
    07:00 +28°C° 0 mm 1 mps 733 mmHg 21%
    08:00 +31°C° 0 mm 1 mps 734 mmHg 18%
    09:00 +35°C° 0 mm 2 mps 734 mmHg 15%
    10:00 +38°C° 0 mm 2 mps 734 mmHg 11%
    11:00 +39°C° 0 mm 1 mps 734 mmHg 11%
    12:00 +41°C° 0 mm 1 mps 733 mmHg 10%
    13:00 +42°C° 0 mm 1 mps 732 mmHg 10%
    14:00 +42°C° 0 mm 1 mps 732 mmHg 10%
    15:00 +42°C° 0 mm 1 mps 731 mmHg 10%
    16:00 +42°C° 0 mm 2 mps 731 mmHg 10%
    17:00 +39°C° 0 mm 2 mps 731 mmHg 12%
    18:00 +37°C° 0 mm 2 mps 731 mmHg 13%
    19:00 +35°C° 0 mm 2 mps 732 mmHg 15%
    20:00 +34°C° 0 mm 2 mps 732 mmHg 16%
    21:00 +32°C° 0 mm 2 mps 733 mmHg 17%
    22:00 +31°C° 0 mm 3 mps 733 mmHg 17%
    23:00 +31°C° 0 mm 3 mps 733 mmHg 17%

    21 November, Wednesday

    Time Temperature Precipitation Wind Pressure Humidity
    00:00 +30°C° 0 mm 3 mps 733 mmHg 17%
    01:00 +29°C° 0 mm 3 mps 732 mmHg 18%
    02:00 +29°C° 0 mm 2 mps 732 mmHg 17%
    03:00 +28°C° 0 mm 2 mps 732 mmHg 16%
    04:00 +28°C° 0 mm 2 mps 732 mmHg 16%
    05:00 +28°C° 0 mm 2 mps 732 mmHg 16%
    06:00 +28°C° 0 mm 2 mps 733 mmHg 16%
    07:00 +28°C° 0 mm 2 mps 733 mmHg 17%
    08:00 +31°C° 0 mm 2 mps 734 mmHg 15%
    09:00 +34°C° 0 mm 2 mps 734 mmHg 13%
    10:00 +37°C° 0 mm 2 mps 734 mmHg 11%
    11:00 +38°C° 0 mm 2 mps 733 mmHg 10%
    12:00 +40°C° 0 mm 1 mps 733 mmHg 10%
    13:00 +42°C° 0 mm 1 mps 732 mmHg 9%
    14:00 +42°C° 0 mm 1 mps 731 mmHg 9%
    15:00 +41°C° 0 mm 1 mps 731 mmHg 9%
    16:00 +41°C° 0 mm 1 mps 730 mmHg 9%
    17:00 +39°C° 0 mm 2 mps 731 mmHg 11%
    18:00 +37°C° 0 mm 2 mps 731 mmHg 13%
    19:00 +35°C° 0 mm 2 mps 731 mmHg 14%
    20:00 +34°C° 0 mm 2 mps 732 mmHg 15%
    21:00 +32°C° 0 mm 2 mps 732 mmHg 15%
    22:00 +31°C° 0 mm 2 mps 732 mmHg 16%
    23:00 +30°C° 0 mm 2 mps 732 mmHg 17%

    22 November, Thursday

    Time Temperature Precipitation Wind Pressure Humidity
    00:00 +30°C° 0 mm 2 mps 732 mmHg 17%
    01:00 +29°C° 0 mm 2 mps 732 mmHg 17%
    02:00 +28°C° 0 mm 2 mps 732 mmHg 17%
    03:00 +28°C° 0 mm 2 mps 732 mmHg 17%
    04:00 +27°C° 0 mm 2 mps 732 mmHg 17%
    05:00 +27°C° 0 mm 2 mps 732 mmHg 18%
    06:00 +27°C° 0 mm 2 mps 733 mmHg 19%
    07:00 +27°C° 0 mm 1 mps 733 mmHg 20%
    08:00 +30°C° 0 mm 1 mps 733 mmHg 17%
    09:00 +32°C° 0 mm 1 mps 734 mmHg 14%
    10:00 +35°C° 0 mm 1 mps 734 mmHg 11%
    11:00 +37°C° 0 mm 1 mps 733 mmHg 10%
    12:00 +40°C° 0 mm 1 mps 732 mmHg 9%
    13:00 +41°C° 0 mm 1 mps 732 mmHg 9%
    14:00 +41°C° 0 mm 1 mps 731 mmHg 9%
    15:00 +41°C° 0 mm 1 mps 730 mmHg 9%
    16:00 +41°C° 0 mm 1 mps 730 mmHg 9%
    17:00 +37°C° 0 mm 1 mps 730 mmHg 10%
    18:00 +35°C° 0 mm 1 mps 731 mmHg 11%
    19:00 +34°C° 0 mm 2 mps 731 mmHg 13%
    20:00 +32°C° 0 mm 2 mps 731 mmHg 13%
    21:00 +31°C° 0 mm 2 mps 731 mmHg 14%
    22:00 +31°C° 0 mm 2 mps 732 mmHg 15%
    23:00 +30°C° 0 mm 2 mps 732 mmHg 15%
    Show more